DGTMR ENCN-ENZV

Flight info

Callsign DGTMR
Flight time 0h 44m
Altitude 2200
Route VFR
Aircraft DA42/L-DGV/A

Departure

Time 2026-04-29 15:45
Airport Kristiansand Airport (ENCN)

Arrival

Time 2026-04-29 16:29
Airport Stavanger Airport, Sola (ENZV)
Time Latitude Longitude Altitude Speed Heading
2026-04-29 15:38 58.20351 8.07686 46 ft 0 kts 261°
2026-04-29 15:40 58.20351 8.07684 46 ft 2 kts 251°
2026-04-29 15:40 58.20346 8.07736 46 ft 10 kts 64°
2026-04-29 15:40 58.20363 8.07860 47 ft 10 kts 75°
2026-04-29 15:41 58.20400 8.07972 47 ft 10 kts 55°
2026-04-29 15:41 58.20448 8.08086 48 ft 12 kts 52°
2026-04-29 15:41 58.20499 8.08214 48 ft 12 kts 53°
2026-04-29 15:41 58.20542 8.08354 48 ft 12 kts 83°
2026-04-29 15:42 58.20554 8.08511 49 ft 12 kts 87°
2026-04-29 15:42 58.20566 8.08664 49 ft 12 kts 81°
2026-04-29 15:42 58.20616 8.08793 50 ft 15 kts 37°
2026-04-29 15:42 58.20736 8.08966 52 ft 27 kts 36°
2026-04-29 15:43 58.20878 8.09155 54 ft 23 kts 36°
2026-04-29 15:43 58.21002 8.09325 53 ft 21 kts 36°
2026-04-29 15:43 58.21048 8.09368 53 ft 6 kts 227°
2026-04-29 15:43 58.20943 8.09229 54 ft 42 kts 219°
2026-04-29 15:44 58.20583 8.08759 78 ft 78 kts 214°
2026-04-29 15:44 58.20107 8.08068 187 ft 94 kts 213°
2026-04-29 15:44 58.19557 8.07397 415 ft 99 kts 208°
2026-04-29 15:44 58.18985 8.06560 604 ft 108 kts 231°
2026-04-29 15:45 58.18642 8.05294 878 ft 108 kts 242°
2026-04-29 15:45 58.18298 8.04001 1132 ft 112 kts 244°
2026-04-29 15:45 58.17968 8.02639 1342 ft 115 kts 248°
2026-04-29 15:45 58.17628 8.01280 1579 ft 114 kts 247°
2026-04-29 15:46 58.17289 7.99945 1788 ft 115 kts 249°
2026-04-29 15:46 58.16984 7.98565 2061 ft 115 kts 249°
2026-04-29 15:46 58.16676 7.97162 2264 ft 112 kts 249°
2026-04-29 15:46 58.16337 7.95755 2296 ft 131 kts 249°
2026-04-29 15:47 58.16002 7.94120 2397 ft 134 kts 252°
2026-04-29 15:47 58.15681 7.92404 2397 ft 142 kts 252°
2026-04-29 15:47 58.15346 7.90615 2398 ft 146 kts 252°
2026-04-29 15:47 58.15017 7.88783 2398 ft 148 kts 253°
2026-04-29 15:48 58.14676 7.86930 2398 ft 149 kts 252°
2026-04-29 15:48 58.14342 7.85083 2394 ft 148 kts 253°
2026-04-29 15:48 58.14031 7.83215 2393 ft 147 kts 255°
2026-04-29 15:48 58.13596 7.81479 2404 ft 148 kts 238°
2026-04-29 15:49 58.12991 7.79878 2389 ft 150 kts 236°
2026-04-29 15:49 58.12365 7.78298 2397 ft 150 kts 235°
2026-04-29 15:49 58.11729 7.76740 2415 ft 150 kts 235°
2026-04-29 15:49 58.11065 7.75208 2400 ft 151 kts 234°
2026-04-29 15:50 58.10389 7.73715 2394 ft 151 kts 233°
2026-04-29 15:50 58.09714 7.72165 2380 ft 158 kts 234°
2026-04-29 15:50 58.09024 7.70579 2396 ft 155 kts 234°
2026-04-29 15:50 58.08344 7.68985 2383 ft 156 kts 235°
2026-04-29 15:51 58.07658 7.67406 2394 ft 156 kts 234°
2026-04-29 15:51 58.06980 7.65812 2374 ft 155 kts 236°
2026-04-29 15:51 58.06521 7.64761 2396 ft 154 kts 234°
2026-04-29 15:51 58.05850 7.63182 2401 ft 154 kts 235°
2026-04-29 15:52 58.05189 7.61611 2401 ft 155 kts 234°
2026-04-29 15:52 58.04520 7.60023 2394 ft 156 kts 235°
2026-04-29 15:52 58.03848 7.58404 2392 ft 155 kts 235°
2026-04-29 15:52 58.03202 7.56806 2393 ft 152 kts 236°
2026-04-29 15:53 58.02601 7.55172 2398 ft 150 kts 240°
2026-04-29 15:53 58.02087 7.53489 2406 ft 146 kts 243°
2026-04-29 15:53 58.01586 7.51803 2403 ft 148 kts 243°
2026-04-29 15:53 58.01070 7.50122 2401 ft 148 kts 243°
2026-04-29 15:54 58.00546 7.48462 2420 ft 148 kts 242°
2026-04-29 15:54 58.00001 7.46790 2402 ft 148 kts 242°
2026-04-29 15:54 57.99765 7.44963 2399 ft 144 kts 270°
2026-04-29 15:54 57.99829 7.43066 2403 ft 146 kts 275°
2026-04-29 15:55 57.99923 7.41147 2392 ft 147 kts 275°
2026-04-29 15:55 58.00033 7.39239 2392 ft 146 kts 277°
2026-04-29 15:55 58.00166 7.37345 2395 ft 146 kts 277°
2026-04-29 15:55 58.00313 7.35433 2393 ft 150 kts 278°
2026-04-29 15:56 58.00444 7.33501 2398 ft 151 kts 277°
2026-04-29 15:56 58.00572 7.31528 2394 ft 152 kts 277°
2026-04-29 15:56 58.00711 7.29551 2395 ft 152 kts 277°
2026-04-29 15:56 58.00846 7.27571 2395 ft 152 kts 277°
2026-04-29 15:57 58.00983 7.25590 2395 ft 152 kts 277°
2026-04-29 15:57 58.01116 7.23618 2397 ft 151 kts 277°
2026-04-29 15:57 58.01242 7.21659 2400 ft 151 kts 277°
2026-04-29 15:57 58.01369 7.19690 2401 ft 153 kts 277°
2026-04-29 15:58 58.01503 7.17693 2399 ft 152 kts 277°
2026-04-29 15:58 58.01703 7.15728 2399 ft 153 kts 287°
2026-04-29 15:58 58.02076 7.13839 2397 ft 154 kts 290°
2026-04-29 15:58 58.02473 7.11983 2398 ft 151 kts 290°
2026-04-29 15:59 58.02878 7.10161 2405 ft 150 kts 291°
2026-04-29 15:59 58.03342 7.08357 2405 ft 157 kts 296°
2026-04-29 15:59 58.03849 7.06524 2408 ft 158 kts 296°
2026-04-29 15:59 58.04354 7.04697 2401 ft 157 kts 296°
2026-04-29 16:00 58.04852 7.02893 2390 ft 152 kts 296°
2026-04-29 16:00 58.05338 7.01118 2402 ft 153 kts 295°
2026-04-29 16:00 58.05845 6.99339 2411 ft 154 kts 296°
2026-04-29 16:00 58.06346 6.97557 2405 ft 153 kts 296°
2026-04-29 16:01 58.06839 6.95773 2408 ft 155 kts 296°
2026-04-29 16:01 58.07352 6.93959 2393 ft 157 kts 296°
2026-04-29 16:01 58.07856 6.92151 2392 ft 155 kts 296°
2026-04-29 16:01 58.08353 6.90348 2393 ft 154 kts 296°
2026-04-29 16:02 58.08846 6.88558 2399 ft 152 kts 296°
2026-04-29 16:02 58.09331 6.86805 2399 ft 152 kts 296°
2026-04-29 16:02 58.09815 6.85034 2410 ft 152 kts 296°
2026-04-29 16:02 58.10306 6.83236 2396 ft 155 kts 296°
2026-04-29 16:03 58.10804 6.81440 2396 ft 153 kts 296°
2026-04-29 16:03 58.11305 6.79665 2396 ft 153 kts 297°
2026-04-29 16:03 58.11801 6.77893 2397 ft 153 kts 296°
2026-04-29 16:03 58.12299 6.76112 2397 ft 154 kts 298°
2026-04-29 16:04 58.12806 6.74300 2395 ft 157 kts 297°
2026-04-29 16:04 58.13314 6.72500 2399 ft 154 kts 298°
2026-04-29 16:04 58.13818 6.70749 2403 ft 148 kts 298°
2026-04-29 16:04 58.14332 6.69031 2407 ft 152 kts 300°
2026-04-29 16:05 58.14856 6.67280 2404 ft 153 kts 299°
2026-04-29 16:05 58.15414 6.65560 2411 ft 154 kts 302°
2026-04-29 16:05 58.15978 6.63849 2399 ft 153 kts 301°
2026-04-29 16:05 58.16557 6.62137 2415 ft 157 kts 302°
2026-04-29 16:06 58.17149 6.60417 2409 ft 155 kts 302°
2026-04-29 16:06 58.17720 6.58725 2410 ft 154 kts 302°
2026-04-29 16:06 58.18294 6.57017 2410 ft 153 kts 302°
2026-04-29 16:06 58.18869 6.55306 2409 ft 154 kts 302°
2026-04-29 16:07 58.19447 6.53602 2412 ft 153 kts 302°
2026-04-29 16:07 58.20023 6.51899 2410 ft 153 kts 302°
2026-04-29 16:07 58.20599 6.50193 2403 ft 154 kts 302°
2026-04-29 16:07 58.21179 6.48482 2404 ft 154 kts 302°
2026-04-29 16:08 58.21760 6.46766 2404 ft 154 kts 302°
2026-04-29 16:08 58.22337 6.45049 2404 ft 154 kts 302°
2026-04-29 16:08 58.22914 6.43332 2404 ft 154 kts 302°
2026-04-29 16:08 58.23488 6.41618 2405 ft 153 kts 302°
2026-04-29 16:09 58.24053 6.39935 2408 ft 153 kts 302°
2026-04-29 16:09 58.24623 6.38240 2408 ft 152 kts 302°
2026-04-29 16:09 58.25228 6.36593 2408 ft 152 kts 306°
2026-04-29 16:09 58.25864 6.34961 2348 ft 155 kts 306°
2026-04-29 16:10 58.26517 6.33301 2271 ft 158 kts 306°
2026-04-29 16:10 58.27179 6.31626 2215 ft 158 kts 306°
2026-04-29 16:10 58.27834 6.29972 2215 ft 156 kts 308°
2026-04-29 16:10 58.28575 6.28474 2215 ft 155 kts 314°
2026-04-29 16:11 58.29361 6.27071 2215 ft 154 kts 316°
2026-04-29 16:11 58.30174 6.25744 2215 ft 154 kts 319°
2026-04-29 16:11 58.30998 6.24456 2215 ft 153 kts 319°
2026-04-29 16:11 58.31812 6.23187 2216 ft 153 kts 319°
2026-04-29 16:12 58.32635 6.21899 2214 ft 154 kts 319°
2026-04-29 16:12 58.33188 6.21010 2215 ft 154 kts 318°
2026-04-29 16:12 58.34241 6.19186 2218 ft 154 kts 317°
2026-04-29 16:12 58.34998 6.17751 2218 ft 154 kts 317°
2026-04-29 16:13 58.35748 6.16273 2215 ft 155 kts 317°
2026-04-29 16:13 58.36508 6.14838 2222 ft 154 kts 318°
2026-04-29 16:13 58.37285 6.13430 2215 ft 153 kts 319°
2026-04-29 16:13 58.38058 6.12030 2220 ft 153 kts 319°
2026-04-29 16:14 58.38837 6.10646 2220 ft 153 kts 320°
2026-04-29 16:14 58.39617 6.09269 2217 ft 153 kts 320°
2026-04-29 16:14 58.40385 6.07889 2217 ft 151 kts 320°
2026-04-29 16:14 58.41148 6.06521 2215 ft 150 kts 320°
2026-04-29 16:15 58.41898 6.05165 2216 ft 151 kts 320°
2026-04-29 16:15 58.42670 6.03790 2217 ft 152 kts 320°
2026-04-29 16:15 58.43442 6.02404 2217 ft 152 kts 320°
2026-04-29 16:15 58.44213 6.01027 2221 ft 152 kts 320°
2026-04-29 16:16 58.44995 5.99639 2225 ft 154 kts 319°
2026-04-29 16:16 58.45782 5.98233 2214 ft 154 kts 319°
2026-04-29 16:16 58.46563 5.96837 2219 ft 153 kts 320°
2026-04-29 16:16 58.47334 5.95447 2219 ft 152 kts 319°
2026-04-29 16:17 58.48092 5.94076 2221 ft 152 kts 319°
2026-04-29 16:17 58.48875 5.92698 2221 ft 153 kts 320°
2026-04-29 16:17 58.49660 5.91324 2221 ft 152 kts 320°
2026-04-29 16:17 58.50442 5.89961 2212 ft 151 kts 320°
2026-04-29 16:18 58.51202 5.88593 2218 ft 150 kts 319°
2026-04-29 16:18 58.51967 5.87223 2218 ft 151 kts 320°
2026-04-29 16:18 58.52738 5.85853 2225 ft 151 kts 320°
2026-04-29 16:18 58.53491 5.84466 2216 ft 152 kts 319°
2026-04-29 16:19 58.54270 5.83072 2214 ft 154 kts 319°
2026-04-29 16:19 58.55063 5.81672 2214 ft 155 kts 320°
2026-04-29 16:19 58.55860 5.80274 2215 ft 155 kts 320°
2026-04-29 16:19 58.56643 5.78868 2206 ft 153 kts 319°
2026-04-29 16:20 58.57414 5.77466 2191 ft 155 kts 320°
2026-04-29 16:20 58.58218 5.76024 2053 ft 160 kts 320°
2026-04-29 16:20 58.59022 5.74602 1931 ft 159 kts 322°
2026-04-29 16:20 58.59870 5.73249 1793 ft 158 kts 323°
2026-04-29 16:21 58.60728 5.71934 1638 ft 155 kts 323°
2026-04-29 16:21 58.61568 5.70672 1461 ft 152 kts 324°
2026-04-29 16:21 58.62403 5.69468 1327 ft 146 kts 334°
2026-04-29 16:21 58.63306 5.68746 1337 ft 138 kts 342°
2026-04-29 16:22 58.64205 5.68184 1336 ft 135 kts 343°
2026-04-29 16:22 58.65102 5.67717 1330 ft 132 kts 346°
2026-04-29 16:22 58.65992 5.67328 1336 ft 130 kts 348°
2026-04-29 16:22 58.66869 5.67002 1336 ft 127 kts 348°
2026-04-29 16:23 58.67729 5.66682 1334 ft 126 kts 349°
2026-04-29 16:23 58.68587 5.66357 1328 ft 126 kts 349°
2026-04-29 16:23 58.69437 5.66018 1328 ft 127 kts 348°
2026-04-29 16:23 58.70305 5.65667 1329 ft 127 kts 348°
2026-04-29 16:24 58.71169 5.65314 1325 ft 127 kts 349°
2026-04-29 16:24 58.72027 5.64961 1330 ft 125 kts 348°
2026-04-29 16:24 58.72883 5.64670 1330 ft 125 kts 352°
2026-04-29 16:24 58.73751 5.64607 1326 ft 125 kts 357°
2026-04-29 16:25 58.74623 5.64513 1329 ft 126 kts 356°
2026-04-29 16:25 58.75500 5.64406 1326 ft 126 kts 356°
2026-04-29 16:25 58.76379 5.64339 1328 ft 126 kts 358°
2026-04-29 16:25 58.77250 5.64283 1332 ft 125 kts 356°
2026-04-29 16:26 58.78124 5.64193 1328 ft 126 kts 356°
2026-04-29 16:26 58.78994 5.64082 1300 ft 125 kts 353°
2026-04-29 16:26 58.79830 5.63932 1211 ft 118 kts 355°
2026-04-29 16:26 58.80662 5.63868 1078 ft 121 kts 357°
2026-04-29 16:27 58.81470 5.63887 942 ft 111 kts 356°
2026-04-29 16:27 58.82236 5.63923 818 ft 110 kts 356°
2026-04-29 16:27 58.82978 5.63885 808 ft 98 kts 354°
2026-04-29 16:27 58.83647 5.63879 757 ft 98 kts 356°
2026-04-29 16:28 58.84354 5.63894 630 ft 103 kts 355°
2026-04-29 16:28 58.85058 5.63863 496 ft 102 kts 352°
2026-04-29 16:28 58.85764 5.63809 393 ft 105 kts 353°
2026-04-29 16:28 58.86437 5.63822 304 ft 91 kts 353°
2026-04-29 16:29 58.87039 5.63814 109 ft 80 kts 352°
2026-04-29 16:29 58.87545 5.63781 28 ft 55 kts 356°
2026-04-29 16:29 58.87745 5.63767 28 ft 19 kts 342°
2026-04-29 16:29 58.87909 5.63745 27 ft 31 kts
2026-04-29 16:30 58.88178 5.63752 26 ft 45 kts
2026-04-29 16:30 58.88528 5.63753 24 ft 46 kts 359°
2026-04-29 16:30 58.88683 5.63732 23 ft 13 kts 325°
2026-04-29 16:30 58.88710 5.63623 22 ft 11 kts 269°
2026-04-29 16:31 58.88708 5.63527 26 ft 11 kts 268°
2026-04-29 16:31 58.88751 5.63416 26 ft 13 kts 348°
2026-04-29 16:31 58.88897 5.63411 24 ft 27 kts 360°
2026-04-29 16:31 58.89016 5.63361 20 ft 15 kts 294°
2026-04-29 16:32 58.89050 5.63291 21 ft 6 kts 359°
2026-04-29 16:32 58.89058 5.63291 21 ft 0 kts 12°